Essex, Connecticut, United States (06426)
Lat: 41.35N, Lon: 72.39W
Wx Zone: CTZ011
Local Info
Past Weather Observations for Today

NOTE: This archive is for the closest National Weather Service station to Essex. Information may differ from the station used for current weather conditions.

Click here for Long-term Archive

Time Weather Temperature Dewpoint Humidity Pressure Winds Precip Visibility
17:56
Overcast
34°F / 1°C 21°F / -6°C 60% 30.06 in
(1018 mb)
NNW 10.4 mph
(NNW 17 kph)
- 9SM
16:56
Overcast
34°F / 1°C 21°F / -6°C 60% 30.04 in
(1017 mb)
NNW 12.7 mph
(NNW 20 kph)
- 9SM
15:56
Overcast
36°F / 2°C 21°F / -6°C 56% 30.04 in
(1017 mb)
NNW 12.7 mph
(NNW 20 kph)
- 7SM
14:56
Overcast
36°F / 2°C 21°F / -6°C 56% 30.01 in
(1016 mb)
NNW 12.7 mph
(NNW 20 kph)
- 7SM
13:56
Overcast
36°F / 2°C 23°F / -5°C 60% 29.98 in
(1015 mb)
NNW 13.8 mph
(NNW 22 kph)
- 7SM
12:56
Overcast
37°F / 3°C 23°F / -5°C 56% 29.98 in
(1015 mb)
N 16.1 mph
(N 26 kph)
- 7SM
11:56
Overcast
37°F / 3°C 23°F / -5°C 56% 29.98 in
(1015 mb)
NNW 17.3 mph
(NNW 28 kph)
- 8SM
10:56
Mostly Cloudy
37°F / 3°C 23°F / -5°C 56% 29.98 in
(1015 mb)
NW 11.5 mph
(NW 19 kph)
- 7SM
09:56
Mostly Cloudy
36°F / 2°C 21°F / -6°C 56% 30.01 in
(1016 mb)
WNW 13.8 mph
(WNW 22 kph)
- 8SM
08:56
Overcast
36°F / 2°C 21°F / -6°C 56% 29.98 in
(1015 mb)
NW 15 mph
(NW 24 kph)
- 7SM
07:56
Mostly Cloudy
34°F / 1°C 21°F / -6°C 60% 29.98 in
(1015 mb)
NW 11.5 mph
(NW 19 kph)
- 7SM
06:56
Mostly Cloudy
34°F / 1°C 21°F / -6°C 60% 29.98 in
(1015 mb)
NW 15 mph
(NW 24 kph)
- 10SM
05:56
Overcast
34°F / 1°C 25°F / -4°C 70% 29.95 in
(1014 mb)
NW 13.8 mph
(NW 22 kph)
- 9SM
04:56
Overcast
34°F / 1°C 27°F / -3°C 75% 29.92 in
(1013 mb)
NW 10.4 mph
(NW 17 kph)
- 8SM
03:56
Overcast
36°F / 2°C 27°F / -3°C 70% 29.92 in
(1013 mb)
NW 9.2 mph
(NW 15 kph)
- 8SM
02:56
Overcast
36°F / 2°C 27°F / -3°C 70% 29.92 in
(1013 mb)
NW 10.4 mph
(NW 17 kph)
- 8SM
02:24
Overcast
36°F / 2°C 27°F / -3°C 70% 29.92 in
(1013 mb)
W 5.8 mph
(W 9 kph)
- 8SM
02:08
Overcast
34°F / 1°C 27°F / -3°C 75% 29.92 in
(1013 mb)
W 4.6 mph
(W 7 kph)
- 8SM
01:56
Overcast
34°F / 1°C 28°F / -2°C 81% 29.92 in
(1013 mb)
W 4.6 mph
(W 7 kph)
- 8SM
00:56
Partly Cloudy
34°F / 1°C 27°F / -3°C 75% 29.92 in
(1013 mb)
NW 6.9 mph
(NW 11 kph)
- 9SM
Time Weather Temperature Dewpoint Humidity Pressure Winds Precip Visibility


Weather for websites

WeatherForYou.com, LLC is not responsible for any damages or problems caused by this service. Current weather conditions are obtained from the closest station including government and personal stations which may have varying degrees of accuracy. Weather forecasts are derived from the NOAA NDFD. Like all things, this site belongs to Jesus Christ... He just trusts me to maintain it. If you have any questions or comments email webmaster@weatherforyou.com

Copyright © 2014, WeatherForYou.com LLC. All rights reserved.